{"data":{"norad_id":39763,"intl_designator":"2014-028C","name":"COSMOS 2498 (RODNIK-S *)","alt_names":[],"object_type":"PAYLOAD","status":"ACTIVE","operator":null,"country":"CIS","launch_date":"2014-05-23","launch_site_code":"PLMSC","launch_vehicle":null,"mission":null,"orbit_class":"UNKNOWN","rcs_meters":1.7561,"size_class":null,"mass_kg":null,"dimensions":null,"purposes":[],"wikipedia_slug":null,"has_3d_model":false,"image_url":null,"decayed_at":null,"tle_current":{"epoch":"2026-05-25T04:43:29.508384Z","epoch_age_seconds":54673,"freshness":"FRESH","line1":"1 39763U 14028C   26145.19686931  .00000066  00000+0  40365-3 0  9996","line2":"2 39763  82.4438 123.3091 0022253 121.5656 238.7600 12.42979453544698","mean_motion":12.42979453,"eccentricity":0.0022253,"inclination_deg":82.4438,"raan_deg":123.3091,"arg_perigee_deg":121.5656,"mean_anomaly_deg":238.76,"bstar":0.00040365,"rev_number":54469,"period_min":115.85066804801,"perigee_km":1476.4802886497,"apogee_km":1511.5160133527,"semimajor_km":7872.1351510012,"source":"CELESTRAK","updated_at":"2026-05-25T13:37:55.438288Z"}}}